User: anonymous   Login
Location: Nebula Knoll Observatory
(43.6666°N, 71.0000°W)
Time: 15:49:22
(UTC-04:00)
Language:

Cosmos 1782 - Orbit

View from above orbital plane
View from above orbital plane
View from above satellite
View from above satellite

Ground track
Ground track

The orbit data is extracted from the following two-line orbital elements,

1 16986U 86074A   16118.67081199  .00001263  00000-0  84565-4 0  9997
2 16986  82.5071 165.2931 0010494 328.8063  31.2540 15.06038914608309
Epoch (UTC): 27 April 2016 16:05:58
Eccentricity: 0.0010494
inclination: 82.5071°
perigee height: 541 km
apogee height: 555 km
right ascension of ascending node: 165.2931°
argument of perigee: 328.8063°
revolutions per day: 15.06038914
mean anomaly at epoch: 31.2540°
orbit number at epoch: 60830

The dashed part of the orbit path shows where the satellite is in the earth's shadow,  

DLR